This is the latest recevied weather packets stored in our database for station/object SP9MUF-14. If no packets are shown the sender has not sent any weather packets the latest 10 day(s).
| Time | Temp. | Humidity | Pressure | Rain* | Wind** | Luminosity | Snow |
|---|---|---|---|---|---|---|---|
| 1787681697 | 13.89° C | 89% | 1019.4 hPa | 0 mm | - | 0 W/m² | - |
| 1787681395 | 13.89° C | 89% | 1019.3 hPa | 0 mm | - | 0 W/m² | - |
| 1787681092 | 13.89° C | 89% | 1019.2 hPa | 0 mm | - | 0 W/m² | - |
| 1787680790 | 13.89° C | 88% | 1019.2 hPa | 0 mm | - | 0 W/m² | - |
| 1787680488 | 13.89° C | 88% | 1019.1 hPa | 0 mm | - | 1 W/m² | - |
| 1787680186 | 13.89° C | 88% | 1019.1 hPa | 0 mm | - | 1 W/m² | - |
| 1787679883 | 13.89° C | 88% | 1019.1 hPa | 0 mm | - | 1 W/m² | - |
| 1787679581 | 13.89° C | 88% | 1019.1 hPa | 0 mm | - | 1 W/m² | - |
| 1787678976 | 13.89° C | 88% | 1018.9 hPa | 0 mm | - | 2 W/m² | - |
| 1787678674 | 13.89° C | 88% | 1018.9 hPa | 0 mm | - | 2 W/m² | - |
| 1787678070 | 13.89° C | 88% | 1018.9 hPa | 0 mm | - | 2 W/m² | - |
| 1787677767 | 13.89° C | 88% | 1018.9 hPa | 0 mm | - | 2 W/m² | - |
| 1787677465 | 15° C | 88% | 1019 hPa | 0 mm | - | 2 W/m² | - |
| 1787676860 | 13.89° C | 87% | 1017.5 hPa | 0 mm | - | 2 W/m² | - |
| 1787676558 | 15° C | 88% | 1019 hPa | 0 mm | - | 4 W/m² | - |
| 1787676255 | 15° C | 87% | 1019 hPa | 0 mm | - | 5 W/m² | - |
| 1787675953 | 15° C | 88% | 1018.9 hPa | 0 mm | - | 4 W/m² | - |
| 1787675651 | 13.89° C | 88% | 1018.8 hPa | 0 mm | - | 4 W/m² | - |
| 1787675349 | 15° C | 89% | 1018.7 hPa | 0 mm | - | 4 W/m² | - |
| 1787675046 | 15° C | 89% | 1018.8 hPa | 0 mm | - | 5 W/m² | - |
| 1787674744 | 15° C | 89% | 1018.8 hPa | 0 mm | - | 5 W/m² | - |
| 1787674442 | 15° C | 89% | 1018.9 hPa | 0 mm | - | 10 W/m² | - |
| 1787674139 | 13.89° C | 89% | 1019 hPa | 0 mm | - | 15 W/m² | - |
| 1787673837 | 15° C | 90% | 1019 hPa | 0 mm | - | 12 W/m² | - |
| 1787673534 | 15° C | 90% | 1019.1 hPa | 0 mm | - | 17 W/m² | - |
* Rain latest hour (hover to see other rain measurements)
** Current wind speed in m/s (hover to see current wind gust speed)